SCP
0 0 0 0 0 0 0 0 0 0 0 0 0 0 0 0 0 0 0 0 0 0 0 0 0 0 0 0 0 0 0 0 0 0 0 0 0 0 0 0 0 0 0 0 -0
0 0 0 0 0 0 0 0 0 0 0 0 0 0 0 0 0 0 0 0 0 0 0 0 0 0 0 0 0 0 0 0 0 0 0 0 0 0 0 0 0 0 0 0 0
0 0 0 0 0 0 0 0 0 0 0 0 0 0 0 0 0 0 0 0 0 0 0 0 0 0 0 0 0 0 0 0 0 0 0 0 0 0 0 0 0 0 0 0 0
0 0 0 0 0 0 0 0 0 0 0 0 0 0 0 0 0 0 0 0 0 0 0 0 0 0 0 0 0 0 0 0 0 0 0 0 0 0 0 0 0 0 0 0 0
0 0 0 0 0 0 0 0 0 0 0 0 0 0 0 0 0 0 0 0 0 0 0 0 0 0 0 0 0 0 0 0 0 0 0 0 0 0 0 0 0 0 0 0 0
0 0 0 0 0 0 0 0 0 0 0 0 1 0 0 0 0 0 0 0 0 0 0 0 0 0 0 0 0 0 0 0 0 0 0 0 0 0 0 0 0 0 0 0 0
0 0 0 0 0 0 0 0 0 0 0 0 1 0 0 0 0 0 0 0 0 0 0 0 0 0 0 0 0 0 0 0 0 0 0 0 0 -0 0 0 0 0 0 0 0
0 0 0 0 0 0 0 0 0 0 0 0 1 0 0 0 0 0 0 0 0 0 0 0 0 0 0 0 0 0 0 0 0 0 0 0 0 0 0 0 0 0 0 0 0
0 0 0 -0 0 0 0 0 0 0 0 0 0 0 0 0 0 0 0 0 0 0 0 0 0 0 0 0 0 0 0 0 0 0 0 0 0 0 0 0 0 0 0 0 0
0 0 0 0 0 0 0 1 1 0 0 0 0 0 0 0 0 0 0 0 0 0 0 0 0 0 0 0 0 0 0 0 0 0 0 0 0 0 0 0 0 0 0 0 0
0 0 0 0 0 0 0 1 1 0 0 0 0 0 0 0 0 0 0 0 0 1 0 0 0 0 0 0 0 0 0 0 0 0 0 0 0 0 0 0 0 0 0 0 0
0 0 0 0 -0 0 0 0 0 0 0 0 0 0 0 0 0 0 0 0 0 0 0 0 0 0 0 0 0 0 0 0 0 0 0 0 0 0 -0 0 0 0 0 0 0
0 0 0 0 0 0 0 0 0 0 0 0 0 0 0 0 0 0 0 0 0 0 0 0 0 0 0 0 0 0 0 0 0 0 0 0 -0 -0 -0 0 0 0 0 -0 0
0 0 0 0 0 0 0 0 0 0 0 0 0 0 0 0 0 0 0 0 0 0 0 0 0 0 0 0 0 0 0 0 0 0 0 0 -0 0 0 0 0 0 0 0 -0
0 0 0 0 0 0 0 0 0 0 0 0 0 0 0 0 0 0 0 0 0 0 0 0 0 0 0 0 0 0 0 0 0 0 0 0 -0 -0 0 0 0 0 0 0 0
0 0 0 0 0 0 0 0 0 0 0 0 0 0 0 0 0 0 0 0 0 0 0 0 0 0 0 0 0 0 0 0 0 0 0 0 0 -0 0 0 0 0 0 0 0
0 0 0 0 0 0 0 0 0 0 0 0 0 0 0 0 0 0 0 0 0 0 0 0 0 0 0 0 0 0 0 0 0 0 0 0 0 -0 0 0 0 0 0 0 0
0 0 0 0 0 0 0 0 0 0 0 0 0 0 0 0 0 0 0 0 0 0 0 0 0 0 0 0 0 0 0 0 0 0 0 0 0 -0 -0 -0 0 0 0 0 0
0 0 0 0 0 0 0 0 0 0 0 0 0 0 0 0 0 0 0 0 0 0 0 0 0 0 0 0 0 0 0 0 0 0 0 0 0 0 0 0 0 0 0 0 0
0 0 0 0 0 0 0 0 0 0 0 0 0 0 0 0 0 0 0 0 0 0 0 0 0 0 0 0 0 0 0 0 0 -0 0 0 0 0 0 0 0 0 0 0 0
0 0 0 0 0 0 0 0 0 0 0 0 0 0 0 0 0 0 0 0 0 0 0 0 0 0 0 0 0 0 0 0 0 0 0 0 0 0 0 -0 0 0 0 0 0
0 0 0 0 0 0 0 0 0 0 0 0 0 0 0 0 0 0 0 0 0 0 0 0 0 0 0 0 0 0 0 0 0 0 0 0 -0 -0 0 0 0 0 0 0 0
0 0 0 0 0 0 0 0 0 0 0 0 0 0 0 0 0 0 0 0 0 0 0 0 0 0 0 0 0 0 0 0 0 0 0 0 0 0 0 0 0 0 0 0 0
0 0 0 0 0 0 0 0 0 0 0 0 0 0 0 0 0 0 0 0 0 0 0 0 0 0 0 0 0 0 0 0 0 0 0 0 0 0 0 0 0 0 0 0 0
0 0 0 0 -0 0 0 0 0 0 0 0 0 0 0 0 0 0 0 0 0 0 0 0 0 0 0 0 0 0 0 0 0 0 0 -0 -0 0 0 0 0 0 0 0 -0
0 0 0 0 0 0 0 0 0 0 0 0 0 0 0 0 0 0 0 0 0 0 0 0 0 0 0 0 0 0 0 0 0 0 0 0 0 0 0 0 0 0 0 -0 -0
0 0 0 0 0 0 0 0 0 0 0 0 0 0 0 0 0 0 0 0 0 0 0 0 0 0 0 0 0 0 0 0 0 0 0 0 0 0 0 0 0 0 0 0 0
Wind_Speed_500mb
72 67 62 52 66 58 50 45 52 54 55 55 51 46 41 40 46 48 54 45 40 27 21 24 21 17 12 3 4 5 7 4 6 3 6 4 4 5 9 10 17 17 9 7 41
77 73 69 64 58 67 58 52 44 51 51 52 52 48 40 42 46 62 63 47 46 40 32 18 20 14 9 12 7 6 5 19 12 8 3 11 6 8 7 11 14 16 23 15 42
81 80 74 72 66 60 64 60 49 43 51 50 50 48 41 41 40 64 63 56 50 47 36 31 21 13 9 11 14 11 8 8 14 19 5 9 9 6 7 7 24 30 29 26 45
74 83 82 76 74 68 60 68 58 49 47 50 48 48 43 40 20 4 42 58 56 50 39 35 23 11 10 8 13 8 8 11 15 14 9 8 15 11 18 17 11 28 19 31 45
86 78 87 83 78 76 68 61 66 51 45 47 50 48 48 47 58 8 2 46 55 61 50 38 31 17 9 10 12 6 10 16 17 16 7 6 14 14 35 28 28 16 31 35 41
101 81 84 87 82 78 73 67 65 61 48 46 48 50 50 50 53 65 23 22 56 64 58 48 24 24 13 10 13 16 22 15 17 25 16 10 10 3 17 16 29 32 28 39 44
84 96 74 88 86 81 78 73 67 67 55 47 48 54 51 73 19 40 66 16 20 56 65 55 43 34 16 8 20 8 4 7 20 12 9 13 10 17 46 41 24 28 32 39 47
80 78 85 78 83 86 83 79 70 66 61 49 47 54 40 68 30 27 61 68 44 38 56 54 47 25 8 5 8 7 3 9 5 22 15 17 24 13 17 36 42 37 33 41 49
78 75 84 100 61 99 91 84 73 64 62 52 50 49 36 55 71 47 44 63 45 24 49 38 41 16 11 10 3 7 9 12 6 25 7 12 9 31 45 43 45 49 45 43 49
78 77 77 85 80 82 101 87 77 61 57 50 50 28 36 78 67 75 38 39 42 30 38 26 23 12 8 12 32 18 22 6 13 10 11 12 22 15 13 36 59 57 51 53 53
76 83 76 76 107 83 93 86 76 39 77 37 50 41 11 67 56 69 79 46 38 35 23 45 19 34 51 51 5 11 10 23 9 10 11 16 22 30 35 43 36 46 58 59 60
71 73 80 82 75 81 89 110 103 63 65 49 16 70 6 52 35 56 64 51 34 37 25 15 40 55 32 27 29 14 3 7 6 10 11 10 21 27 37 36 53 64 54 53 52
75 79 70 71 61 71 104 112 104 58 23 45 31 63 31 44 24 55 72 63 24 32 39 41 19 43 34 30 38 38 34 11 9 2 4 7 26 37 26 51 64 73 80 81 78
76 73 72 66 56 57 81 107 98 79 16 26 27 15 55 28 12 40 67 52 14 38 26 22 23 17 35 32 44 41 41 26 21 5 15 14 15 22 11 35 37 63 76 90 86
72 71 71 67 56 52 71 121 98 46 18 35 29 24 52 40 31 24 63 48 36 17 15 24 7 34 25 44 34 25 22 32 30 23 12 12 10 10 15 30 28 48 71 90 97
80 75 72 73 73 62 61 106 97 11 16 23 40 31 35 36 16 31 25 39 15 10 5 11 8 7 23 16 25 1 5 18 26 22 21 41 26 20 24 25 28 44 64 81 90
83 82 77 74 79 73 73 112 22 19 21 21 44 46 49 27 23 16 31 28 27 31 30 21 24 7 6 7 21 16 10 10 18 18 18 29 19 47 14 14 20 29 53 80 75
86 80 76 90 82 63 84 36 30 29 24 16 46 50 33 42 25 17 28 28 24 10 17 26 9 30 25 21 6 31 34 15 9 8 20 9 24 19 25 63 73 71 69 56 54
79 76 80 84 84 79 72 38 18 41 15 43 47 50 17 28 19 20 26 27 35 15 15 24 17 5 23 15 29 6 30 10 3 3 4 9 18 13 13 18 34 48 61 78 75
81 80 88 87 78 77 27 34 13 33 22 40 35 36 36 51 28 30 32 26 19 33 4 12 2 9 9 14 18 28 4 8 12 10 10 14 15 14 16 36 41 26 51 62 60
86 58 82 91 77 45 21 18 9 22 50 23 17 26 34 45 37 44 39 7 43 28 12 9 7 3 13 14 21 11 21 15 5 9 9 5 13 16 24 25 28 32 56 63 61
52 16 73 90 27 12 26 18 34 20 18 12 12 10 35 50 32 19 26 17 45 40 36 12 8 7 12 6 4 17 23 30 19 8 5 4 36 8 18 15 9 26 49 51 47
24 30 86 103 28 28 15 17 22 29 15 12 11 8 29 33 18 12 15 8 45 30 35 20 9 5 6 9 2 11 19 23 20 12 11 10 36 8 8 9 20 30 39 40 40
29 13 39 73 55 48 36 35 29 14 12 12 15 38 23 31 9 18 13 2 27 33 29 42 7 13 29 18 5 15 32 22 33 28 40 30 59 38 10 16 12 19 26 26 24
26 10 28 31 34 52 30 43 45 19 7 17 9 37 25 15 9 12 13 11 13 22 14 13 12 10 22 15 6 5 16 38 40 46 31 44 47 54 30 16 22 37 26 30 29
15 14 38 11 47 58 46 34 56 13 11 9 30 32 17 31 21 26 23 13 10 9 21 5 4 1 17 18 17 28 36 26 28 43 42 53 63 50 38 52 51 66 53 41 40
20 45 72 27 39 38 30 44 39 21 15 21 45 29 13 22 39 36 22 32 33 28 8 11 8 5 7 6 4 14 47 54 52 38 38 38 57 47 37 33 39 53 72 86 68
Wind_Direction_500mb
248 246 245 241 238 244 246 244 238 231 226 224 222 225 227 231 234 236 237 231 228 231 240 244 245 247 233 184 232 177 91 166 279 253 303 20 263 219 202 173 181 202 208 191 181
249 246 240 240 236 239 240 242 240 234 228 224 220 219 220 230 239 242 236 228 228 234 238 253 243 235 193 161 181 82 174 195 175 163 296 340 300 241 203 194 212 226 223 208 186
247 246 240 235 236 234 238 235 236 235 231 224 219 214 213 225 242 250 239 230 229 230 233 239 242 217 200 176 164 146 213 197 152 108 343 5 334 267 209 230 221 226 223 206 192
247 243 242 236 232 234 233 230 233 232 232 224 216 206 211 216 225 271 245 231 225 225 226 225 220 199 171 184 187 155 238 198 167 147 105 333 313 302 235 252 270 243 246 216 198
247 245 240 237 232 230 230 228 228 226 224 222 214 199 205 215 222 148 273 197 215 221 216 216 211 194 192 187 163 186 199 223 249 193 193 291 270 269 277 273 260 270 231 226 212
248 246 239 235 231 230 227 225 224 227 225 218 211 199 207 225 229 227 262 184 204 211 216 210 213 200 204 202 190 218 208 214 233 254 210 187 253 212 267 287 245 250 246 229 222
246 242 244 233 230 226 226 225 222 222 224 215 206 204 212 221 236 228 227 211 215 214 213 213 206 198 183 173 216 217 213 252 240 225 272 179 237 215 253 260 270 245 241 231 227
245 237 234 228 226 225 222 222 224 220 217 211 202 204 226 229 221 208 215 233 237 219 218 215 201 208 192 175 101 143 159 237 232 184 229 213 250 233 238 242 249 252 243 239 233
241 237 233 234 225 225 218 218 219 215 210 204 198 199 223 224 213 200 205 221 214 226 212 217 208 205 176 139 81 211 226 207 288 192 139 202 254 251 252 234 240 242 246 244 242
237 235 231 236 239 234 213 209 211 203 199 194 202 182 227 224 216 203 191 212 201 206 197 183 177 184 164 181 219 206 214 208 197 205 169 215 256 264 234 229 230 236 242 243 244
234 233 232 233 229 229 207 202 184 192 187 187 192 189 30 214 203 211 213 213 205 195 202 197 202 205 214 210 4 133 164 211 202 200 171 222 245 252 255 251 257 242 235 237 241
231 232 231 235 234 231 213 198 189 188 176 194 205 199 94 180 173 200 202 200 195 211 196 204 218 216 218 213 222 240 179 214 225 192 196 227 255 269 256 240 239 238 237 235 241
232 227 226 229 229 226 222 202 190 177 163 187 185 197 181 178 179 187 190 195 194 205 214 227 230 222 211 220 206 225 230 200 225 205 259 349 271 260 251 239 241 243 246 252 251
226 223 220 223 225 227 217 196 186 175 172 160 192 207 195 182 186 193 196 188 203 209 212 227 240 191 227 226 211 226 217 230 226 208 244 169 273 254 239 232 225 233 239 245 246
223 222 219 217 218 221 217 187 179 185 209 159 164 179 184 178 145 181 193 191 199 175 166 205 114 212 223 222 209 240 192 200 218 235 258 230 272 244 222 238 240 233 234 240 242
221 221 214 217 221 223 215 193 178 207 202 161 148 163 153 189 167 152 179 196 173 166 185 192 120 173 240 218 221 282 168 188 216 214 230 229 214 224 227 220 247 244 240 243 241
224 224 223 214 216 215 201 168 187 203 167 138 162 158 169 171 159 163 178 181 181 192 205 208 223 148 148 260 214 236 188 191 211 214 227 202 211 240 231 224 228 241 243 245 239
224 221 218 215 216 216 201 170 207 144 179 173 159 160 172 155 183 168 167 186 207 156 197 201 221 183 176 197 174 221 227 228 231 216 222 110 222 240 229 235 247 252 258 253 248
216 219 219 216 216 210 195 201 187 149 165 153 143 161 149 167 138 161 184 195 195 182 157 192 229 119 182 157 180 167 213 177 118 336 14 194 273 285 241 258 252 255 250 255 257
208 208 212 204 203 206 206 203 137 155 150 144 145 175 169 174 160 171 170 196 197 194 199 189 168 192 150 122 203 231 264 165 210 251 234 227 258 221 215 220 235 237 245 257 259
201 200 205 202 201 204 217 184 134 163 138 147 134 160 177 172 178 180 183 189 191 175 145 142 117 333 120 180 172 188 231 241 156 222 190 266 259 202 200 217 228 237 248 258 270
193 191 194 189 185 217 198 163 145 139 105 94 90 80 167 175 170 166 183 188 185 151 190 182 132 173 196 62 76 211 217 221 248 248 219 199 266 191 224 231 259 260 264 275 275
174 174 176 175 196 201 147 151 138 141 128 147 125 147 155 161 158 150 139 182 174 166 164 156 203 103 4 353 108 206 224 229 224 248 211 243 256 197 225 278 240 261 274 277 289
182 143 158 182 187 198 140 143 138 107 69 75 110 122 116 153 30 160 132 139 170 177 156 157 125 196 226 219 143 201 229 227 234 242 251 238 264 255 277 243 245 251 279 297 294
200 132 155 179 207 169 137 146 142 147 72 133 104 147 140 147 96 143 118 111 81 180 130 142 208 185 251 261 345 303 262 229 219 234 242 255 255 260 256 272 257 278 271 282 292
162 125 158 114 156 151 147 165 159 109 147 166 147 152 135 156 174 167 150 149 153 81 165 57 160 131 269 276 248 261 271 275 250 242 240 247 257 256 280 247 247 263 279 269 259
150 159 144 156 147 138 152 157 153 126 31 121 130 119 103 160 143 147 156 149 148 154 125 127 112 106 244 56 96 271 240 239 238 232 215 232 238 261 250 245 249 261 262 265 264
Wind_Speed_850mb
72 67 62 52 66 58 50 45 52 54 55 55 51 46 41 40 46 48 54 45 40 27 21 24 21 17 12 3 4 5 7 4 6 3 6 4 4 5 9 10 17 17 9 7 41
77 73 69 64 58 67 58 52 44 51 51 52 52 48 40 42 46 62 63 47 46 40 32 18 20 14 9 12 7 6 5 19 12 8 3 11 6 8 7 11 14 16 23 15 42
81 80 74 72 66 60 64 60 49 43 51 50 50 48 41 41 40 64 63 56 50 47 36 31 21 13 9 11 14 11 8 8 14 19 5 9 9 6 7 7 24 30 29 26 45
74 83 82 76 74 68 60 68 58 49 47 50 48 48 43 40 20 4 42 58 56 50 39 35 23 11 10 8 13 8 8 11 15 14 9 8 15 11 18 17 11 28 19 31 45
86 78 87 83 78 76 68 61 66 51 45 47 50 48 48 47 58 8 2 46 55 61 50 38 31 17 9 10 12 6 10 16 17 16 7 6 14 14 35 28 28 16 31 35 41
101 81 84 87 82 78 73 67 65 61 48 46 48 50 50 50 53 65 23 22 56 64 58 48 24 24 13 10 13 16 22 15 17 25 16 10 10 3 17 16 29 32 28 39 44
84 96 74 88 86 81 78 73 67 67 55 47 48 54 51 73 19 40 66 16 20 56 65 55 43 34 16 8 20 8 4 7 20 12 9 13 10 17 46 41 24 28 32 39 47
80 78 85 78 83 86 83 79 70 66 61 49 47 54 40 68 30 27 61 68 44 38 56 54 47 25 8 5 8 7 3 9 5 22 15 17 24 13 17 36 42 37 33 41 49
78 75 84 100 61 99 91 84 73 64 62 52 50 49 36 55 71 47 44 63 45 24 49 38 41 16 11 10 3 7 9 12 6 25 7 12 9 31 45 43 45 49 45 43 49
78 77 77 85 80 82 101 87 77 61 57 50 50 28 36 78 67 75 38 39 42 30 38 26 23 12 8 12 32 18 22 6 13 10 11 12 22 15 13 36 59 57 51 53 53
76 83 76 76 107 83 93 86 76 39 77 37 50 41 11 67 56 69 79 46 38 35 23 45 19 34 51 51 5 11 10 23 9 10 11 16 22 30 35 43 36 46 58 59 60
71 73 80 82 75 81 89 110 103 63 65 49 16 70 6 52 35 56 64 51 34 37 25 15 40 55 32 27 29 14 3 7 6 10 11 10 21 27 37 36 53 64 54 53 52
75 79 70 71 61 71 104 112 104 58 23 45 31 63 31 44 24 55 72 63 24 32 39 41 19 43 34 30 38 38 34 11 9 2 4 7 26 37 26 51 64 73 80 81 78
76 73 72 66 56 57 81 107 98 79 16 26 27 15 55 28 12 40 67 52 14 38 26 22 23 17 35 32 44 41 41 26 21 5 15 14 15 22 11 35 37 63 76 90 86
72 71 71 67 56 52 71 121 98 46 18 35 29 24 52 40 31 24 63 48 36 17 15 24 7 34 25 44 34 25 22 32 30 23 12 12 10 10 15 30 28 48 71 90 97
80 75 72 73 73 62 61 106 97 11 16 23 40 31 35 36 16 31 25 39 15 10 5 11 8 7 23 16 25 1 5 18 26 22 21 41 26 20 24 25 28 44 64 81 90
83 82 77 74 79 73 73 112 22 19 21 21 44 46 49 27 23 16 31 28 27 31 30 21 24 7 6 7 21 16 10 10 18 18 18 29 19 47 14 14 20 29 53 80 75
86 80 76 90 82 63 84 36 30 29 24 16 46 50 33 42 25 17 28 28 24 10 17 26 9 30 25 21 6 31 34 15 9 8 20 9 24 19 25 63 73 71 69 56 54
79 76 80 84 84 79 72 38 18 41 15 43 47 50 17 28 19 20 26 27 35 15 15 24 17 5 23 15 29 6 30 10 3 3 4 9 18 13 13 18 34 48 61 78 75
81 80 88 87 78 77 27 34 13 33 22 40 35 36 36 51 28 30 32 26 19 33 4 12 2 9 9 14 18 28 4 8 12 10 10 14 15 14 16 36 41 26 51 62 60
86 58 82 91 77 45 21 18 9 22 50 23 17 26 34 45 37 44 39 7 43 28 12 9 7 3 13 14 21 11 21 15 5 9 9 5 13 16 24 25 28 32 56 63 61
52 16 73 90 27 12 26 18 34 20 18 12 12 10 35 50 32 19 26 17 45 40 36 12 8 7 12 6 4 17 23 30 19 8 5 4 36 8 18 15 9 26 49 51 47
24 30 86 103 28 28 15 17 22 29 15 12 11 8 29 33 18 12 15 8 45 30 35 20 9 5 6 9 2 11 19 23 20 12 11 10 36 8 8 9 20 30 39 40 40
29 13 39 73 55 48 36 35 29 14 12 12 15 38 23 31 9 18 13 2 27 33 29 42 7 13 29 18 5 15 32 22 33 28 40 30 59 38 10 16 12 19 26 26 24
26 10 28 31 34 52 30 43 45 19 7 17 9 37 25 15 9 12 13 11 13 22 14 13 12 10 22 15 6 5 16 38 40 46 31 44 47 54 30 16 22 37 26 30 29
15 14 38 11 47 58 46 34 56 13 11 9 30 32 17 31 21 26 23 13 10 9 21 5 4 1 17 18 17 28 36 26 28 43 42 53 63 50 38 52 51 66 53 41 40
20 45 72 27 39 38 30 44 39 21 15 21 45 29 13 22 39 36 22 32 33 28 8 11 8 5 7 6 4 14 47 54 52 38 38 38 57 47 37 33 39 53 72 86 68
Wind_Direction_850mb
248 246 245 241 238 244 246 244 238 231 226 224 222 225 227 231 234 236 237 231 228 231 240 244 245 247 233 184 232 177 91 166 279 253 303 20 263 219 202 173 181 202 208 191 181
249 246 240 240 236 239 240 242 240 234 228 224 220 219 220 230 239 242 236 228 228 234 238 253 243 235 193 161 181 82 174 195 175 163 296 340 300 241 203 194 212 226 223 208 186
247 246 240 235 236 234 238 235 236 235 231 224 219 214 213 225 242 250 239 230 229 230 233 239 242 217 200 176 164 146 213 197 152 108 343 5 334 267 209 230 221 226 223 206 192
247 243 242 236 232 234 233 230 233 232 232 224 216 206 211 216 225 271 245 231 225 225 226 225 220 199 171 184 187 155 238 198 167 147 105 333 313 302 235 252 270 243 246 216 198
247 245 240 237 232 230 230 228 228 226 224 222 214 199 205 215 222 148 273 197 215 221 216 216 211 194 192 187 163 186 199 223 249 193 193 291 270 269 277 273 260 270 231 226 212
248 246 239 235 231 230 227 225 224 227 225 218 211 199 207 225 229 227 262 184 204 211 216 210 213 200 204 202 190 218 208 214 233 254 210 187 253 212 267 287 245 250 246 229 222
246 242 244 233 230 226 226 225 222 222 224 215 206 204 212 221 236 228 227 211 215 214 213 213 206 198 183 173 216 217 213 252 240 225 272 179 237 215 253 260 270 245 241 231 227
245 237 234 228 226 225 222 222 224 220 217 211 202 204 226 229 221 208 215 233 237 219 218 215 201 208 192 175 101 143 159 237 232 184 229 213 250 233 238 242 249 252 243 239 233
241 237 233 234 225 225 218 218 219 215 210 204 198 199 223 224 213 200 205 221 214 226 212 217 208 205 176 139 81 211 226 207 288 192 139 202 254 251 252 234 240 242 246 244 242
237 235 231 236 239 234 213 209 211 203 199 194 202 182 227 224 216 203 191 212 201 206 197 183 177 184 164 181 219 206 214 208 197 205 169 215 256 264 234 229 230 236 242 243 244
234 233 232 233 229 229 207 202 184 192 187 187 192 189 30 214 203 211 213 213 205 195 202 197 202 205 214 210 4 133 164 211 202 200 171 222 245 252 255 251 257 242 235 237 241
231 232 231 235 234 231 213 198 189 188 176 194 205 199 94 180 173 200 202 200 195 211 196 204 218 216 218 213 222 240 179 214 225 192 196 227 255 269 256 240 239 238 237 235 241
232 227 226 229 229 226 222 202 190 177 163 187 185 197 181 178 179 187 190 195 194 205 214 227 230 222 211 220 206 225 230 200 225 205 259 349 271 260 251 239 241 243 246 252 251
226 223 220 223 225 227 217 196 186 175 172 160 192 207 195 182 186 193 196 188 203 209 212 227 240 191 227 226 211 226 217 230 226 208 244 169 273 254 239 232 225 233 239 245 246
223 222 219 217 218 221 217 187 179 185 209 159 164 179 184 178 145 181 193 191 199 175 166 205 114 212 223 222 209 240 192 200 218 235 258 230 272 244 222 238 240 233 234 240 242
221 221 214 217 221 223 215 193 178 207 202 161 148 163 153 189 167 152 179 196 173 166 185 192 120 173 240 218 221 282 168 188 216 214 230 229 214 224 227 220 247 244 240 243 241
224 224 223 214 216 215 201 168 187 203 167 138 162 158 169 171 159 163 178 181 181 192 205 208 223 148 148 260 214 236 188 191 211 214 227 202 211 240 231 224 228 241 243 245 239
224 221 218 215 216 216 201 170 207 144 179 173 159 160 172 155 183 168 167 186 207 156 197 201 221 183 176 197 174 221 227 228 231 216 222 110 222 240 229 235 247 252 258 253 248
216 219 219 216 216 210 195 201 187 149 165 153 143 161 149 167 138 161 184 195 195 182 157 192 229 119 182 157 180 167 213 177 118 336 14 194 273 285 241 258 252 255 250 255 257
208 208 212 204 203 206 206 203 137 155 150 144 145 175 169 174 160 171 170 196 197 194 199 189 168 192 150 122 203 231 264 165 210 251 234 227 258 221 215 220 235 237 245 257 259
201 200 205 202 201 204 217 184 134 163 138 147 134 160 177 172 178 180 183 189 191 175 145 142 117 333 120 180 172 188 231 241 156 222 190 266 259 202 200 217 228 237 248 258 270
193 191 194 189 185 217 198 163 145 139 105 94 90 80 167 175 170 166 183 188 185 151 190 182 132 173 196 62 76 211 217 221 248 248 219 199 266 191 224 231 259 260 264 275 275
174 174 176 175 196 201 147 151 138 141 128 147 125 147 155 161 158 150 139 182 174 166 164 156 203 103 4 353 108 206 224 229 224 248 211 243 256 197 225 278 240 261 274 277 289
182 143 158 182 187 198 140 143 138 107 69 75 110 122 116 153 30 160 132 139 170 177 156 157 125 196 226 219 143 201 229 227 234 242 251 238 264 255 277 243 245 251 279 297 294
200 132 155 179 207 169 137 146 142 147 72 133 104 147 140 147 96 143 118 111 81 180 130 142 208 185 251 261 345 303 262 229 219 234 242 255 255 260 256 272 257 278 271 282 292
162 125 158 114 156 151 147 165 159 109 147 166 147 152 135 156 174 167 150 149 153 81 165 57 160 131 269 276 248 261 271 275 250 242 240 247 257 256 280 247 247 263 279 269 259
150 159 144 156 147 138 152 157 153 126 31 121 130 119 103 160 143 147 156 149 148 154 125 127 112 106 244 56 96 271 240 239 238 232 215 232 238 261 250 245 249 261 262 265 264